Flight Track Log - Related Links

Times and Time Zones

All times are in EDT time to prevent confusion due to time zone crossing. See the UPS1132 flight status page for this flight to view local times or setup timezone preferences in your user account.

Time Position Orientation Groundspeed Altitude Reporting Facility
EDT Latitude Longitude Course Direction KTS MPH feet Rate Location/Type
Tue 06:15:22 AM 42.9130 -78.7630 196° South 186 214 3,000  Level FlightAware ADS-B
Tue 06:15:27 AM 42.9080 -78.7630 180° South 193 222 3,200 2,700 Climbing FlightAware ADS-B
Tue 06:16:02 AM 42.8750 -78.7570 172° South 216 249 4,800 2,677 Climbing FlightAware ADS-B
Tue 06:16:32 AM 42.8430 -78.7530 175° South 245 282 6,100 2,618 Climbing FlightAware ADS-B
Tue 06:16:57 AM 42.8150 -78.7360 156° South 272 313 7,200 2,700 Climbing FlightAware ADS-B
Tue 06:17:12 AM 42.8060 -78.7170 123° Southeast 279 321 7,900 3,400 Climbing FlightAware ADS-B
Tue 06:17:27 AM 42.8040 -78.6870 95° East 282 325 8,900 3,200 Climbing FlightAware ADS-B
Tue 06:17:42 AM 42.8050 -78.6610 87° East 292 336 9,500 1,964 Climbing FlightAware ADS-B
Tue 06:18:22 AM 42.8080 -78.5820 87° East 330 380 10,700 2,025 Climbing FlightAware ADS-B
Tue 06:19:02 AM 42.8110 -78.4980 87° East 356 410 12,200 2,541 Climbing FlightAware ADS-B
Tue 06:19:47 AM 42.8150 -78.3910 87° East 370 426 14,300 2,612 Climbing FlightAware ADS-B
Tue 06:20:27 AM 42.8180 -78.2990 87° East 383 441 15,900 1,553 Climbing FlightAware ADS-B
Tue 06:21:12 AM 42.8210 -78.1800 88° East 425 489 16,500 565 Climbing FlightAware ADS-B
Tue 06:21:52 AM 42.8250 -78.0720 87° East 433 498 16,700  Climbing FlightAware ADS-B
Tue 06:22:32 AM 42.8280 -77.9630 88° East 431 496 16,500 -71 Descending FlightAware ADS-B
Tue 06:23:17 AM 42.8310 -77.8430 88° East 431 496 16,600 71 Climbing FlightAware ADS-B
Tue 06:23:57 AM 42.8340 -77.7320 88° East 432 497 16,600  Level FlightAware ADS-B
Tue 06:24:42 AM 42.8330 -77.6080 91° East 431 496 16,600 -424 Level FlightAware ADS-B
Tue 06:25:22 AM 42.8300 -77.4980 92° East 426 490 16,000 -1,050 Descending FlightAware ADS-B
Tue 06:26:02 AM 42.8280 -77.3930 91° East 416 479 15,200 -1,129 Descending FlightAware ADS-B
Tue 06:26:47 AM 42.8260 -77.2780 91° East 408 470 14,400 -1,059 Descending FlightAware ADS-B
Tue 06:27:27 AM 42.8240 -77.1730 91° East 405 466 13,700 -988 Descending FlightAware ADS-B
Tue 06:28:12 AM 42.8210 -77.0580 92° East 403 464 13,000 -988 Descending FlightAware ADS-B
Tue 06:28:52 AM 42.8310 -76.9640 82° East 389 448 12,300 -988 Descending FlightAware ADS-B
Tue 06:29:37 AM 42.8690 -76.8750 60° Northeast 351 404 11,600 -988 Descending FlightAware ADS-B
Tue 06:30:17 AM 42.9000 -76.8050 59° Northeast 323 372 10,900 -560 Descending FlightAware ADS-B
Tue 06:30:52 AM 42.9260 -76.7480 58° Northeast 323 372 10,900 -565 Level FlightAware ADS-B
Tue 06:31:42 AM 42.9650 -76.6610 58° Northeast 321 369 10,100 -533 Descending FlightAware ADS-B
Tue 06:32:22 AM 42.9910 -76.6030 58° Northeast 321 369 10,100  Level FlightAware ADS-B
Tue 06:33:02 AM 43.0180 -76.5440 58° Northeast 321 369 10,100 -3,407 Level FlightAware ADS-B
Tue 06:33:43 AM 43.0458 -76.4778 58° Northeast 263 303 5,500 -3,706 Descending Boston Center
Tue 06:34:44 AM 43.0881 -76.4039 52° Northeast 243 280 3,800 -1,240 Descending Boston Center
Tue 06:35:44 AM 43.1014 -76.3164 78° East 228 262 3,000 -793 Descending Boston Center
Tue 06:36:45 AM 43.1058 -76.2456 85° East 157 181 2,200 -744 Descending Boston Center
Tue 06:37:45 AM 43.1053 -76.2000 91° East 100 115 1,500 -645 Descending Boston Center
Tue 06:38:46 AM 43.1067 -76.1575 87° East 106 122 900 -590 Descending Boston Center

Login

Don't have an account? Register now (free) for customized features, flight alerts, and more!